TimePDT,TemperatureF,Dew PointF,Humidity,Sea Level PressureIn,VisibilityMPH,Wind Direction,Wind SpeedMPH,Gust SpeedMPH,PrecipitationIn,Events,Conditions,WindDirDegrees,DateUTC
12:15 AM,64.4,57.2,77,29.89,10.0,North,-9999.0,-,N/A,,Clear,0,2013-09-11 07:15:00
12:35 AM,64.4,57.2,77,29.89,10.0,North,-9999.0,-,N/A,,Clear,0,2013-09-11 07:35:00
12:55 AM,64.4,59.0,83,29.89,10.0,North,-9999.0,-,N/A,,Clear,0,2013-09-11 07:55:00
1:15 AM,62.6,57.2,82,29.89,10.0,North,-9999.0,-,N/A,,Clear,0,2013-09-11 08:15:00
1:35 AM,62.6,59.0,88,29.89,10.0,North,-9999.0,-,N/A,,Clear,0,2013-09-11 08:35:00
1:55 AM,62.6,57.2,82,29.89,10.0,North,-9999.0,-,N/A,,Clear,0,2013-09-11 08:55:00
2:15 AM,62.6,57.2,82,29.89,10.0,North,-9999.0,-,N/A,,Clear,0,2013-09-11 09:15:00
2:35 AM,60.8,57.2,88,29.89,10.0,North,-9999.0,-,N/A,,Clear,0,2013-09-11 09:35:00
2:55 AM,60.8,57.2,88,29.89,10.0,North,-9999.0,-,N/A,,Clear,0,2013-09-11 09:55:00
3:15 AM,60.8,55.4,82,29.89,10.0,North,-9999.0,-,N/A,,Clear,0,2013-09-11 10:15:00
3:35 AM,59.0,55.4,88,29.89,10.0,North,-9999.0,-,N/A,,Clear,0,2013-09-11 10:35:00
3:55 AM,60.8,55.4,82,29.89,10.0,North,-9999.0,-,N/A,,Clear,0,2013-09-11 10:55:00
4:15 AM,59.0,55.4,88,29.89,10.0,North,-9999.0,-,N/A,,Clear,0,2013-09-11 11:15:00
4:35 AM,57.2,55.4,94,29.89,10.0,North,-9999.0,-,N/A,,Clear,0,2013-09-11 11:35:00
4:55 AM,57.2,53.6,88,29.90,10.0,North,-9999.0,-,N/A,,Clear,0,2013-09-11 11:55:00
5:15 AM,59.0,55.4,88,29.90,10.0,North,-9999.0,-,N/A,,Clear,0,2013-09-11 12:15:00
5:35 AM,57.2,53.6,88,29.90,10.0,North,-9999.0,-,N/A,,Clear,0,2013-09-11 12:35:00
5:55 AM,59.0,55.4,88,29.91,10.0,North,-9999.0,-,N/A,,Clear,0,2013-09-11 12:55:00
6:15 AM,57.2,53.6,88,29.91,9.0,North,-9999.0,-,N/A,,Clear,0,2013-09-11 13:15:00
6:35 AM,57.2,53.6,88,29.92,8.0,North,-9999.0,-,N/A,,Clear,0,2013-09-11 13:35:00
6:55 AM,57.2,53.6,88,29.92,10.0,North,-9999.0,-,N/A,,Clear,0,2013-09-11 13:55:00
7:15 AM,57.2,53.6,88,29.92,3.0,Calm,Calm,-,N/A,,Clear,0,2013-09-11 14:15:00
7:35 AM,57.2,53.6,88,29.92,5.0,Calm,Calm,-,N/A,,Clear,0,2013-09-11 14:35:00
7:55 AM,60.8,55.4,82,29.93,8.0,Calm,Calm,-,N/A,,Clear,0,2013-09-11 14:55:00
8:15 AM,62.6,57.2,82,29.93,10.0,Calm,Calm,-,N/A,,Clear,0,2013-09-11 15:15:00
8:35 AM,62.6,57.2,82,29.94,10.0,Calm,Calm,-,N/A,,Clear,0,2013-09-11 15:35:00
8:55 AM,64.4,57.2,77,29.94,10.0,Calm,Calm,-,N/A,,Clear,0,2013-09-11 15:55:00
9:15 AM,66.2,59.0,78,29.93,10.0,Calm,Calm,-,N/A,,Clear,0,2013-09-11 16:15:00
9:35 AM,69.8,59.0,68,29.94,10.0,Calm,Calm,-,N/A,,Clear,0,2013-09-11 16:35:00
9:55 AM,69.8,60.8,73,29.94,10.0,NW,4.6,-,N/A,,Clear,320,2013-09-11 16:55:00
10:15 AM,71.6,60.8,69,29.94,10.0,WNW,5.8,-,N/A,,Clear,300,2013-09-11 17:15:00
10:35 AM,73.4,60.8,65,29.94,10.0,NW,6.9,-,N/A,,Clear,310,2013-09-11 17:35:00
10:55 AM,75.2,60.8,61,29.94,10.0,NW,5.8,-,N/A,,Clear,310,2013-09-11 17:55:00
11:15 AM,75.2,60.8,61,29.94,10.0,NNW,5.8,-,N/A,,Clear,330,2013-09-11 18:15:00
11:35 AM,78.8,60.8,54,29.94,10.0,NNW,8.1,-,N/A,,Clear,330,2013-09-11 18:35:00
11:55 AM,80.6,60.8,51,29.94,10.0,NW,5.8,-,N/A,,Clear,310,2013-09-11 18:55:00
12:15 PM,80.6,62.6,54,29.93,10.0,NNW,3.5,-,N/A,,Clear,330,2013-09-11 19:15:00
12:35 PM,80.6,62.6,54,29.93,10.0,WSW,3.5,-,N/A,,Clear,240,2013-09-11 19:35:00
12:55 PM,82.4,62.6,51,29.92,10.0,NW,3.5,-,N/A,,Clear,320,2013-09-11 19:55:00
1:15 PM,84.2,60.8,45,29.91,10.0,North,6.9,-,N/A,,Clear,350,2013-09-11 20:15:00
1:35 PM,86.0,62.6,45,29.89,10.0,NNW,4.6,-,N/A,,Clear,330,2013-09-11 20:35:00
1:55 PM,87.8,64.4,46,29.91,10.0,WNW,3.5,-,N/A,,Clear,300,2013-09-11 20:55:00
2:15 PM,89.6,62.6,40,29.91,10.0,NW,4.6,-,N/A,,Clear,310,2013-09-11 21:15:00
2:35 PM,87.8,66.2,49,29.90,10.0,West,4.6,-,N/A,,Clear,280,2013-09-11 21:35:00
2:55 PM,89.6,66.2,46,29.90,10.0,West,4.6,-,N/A,,Clear,260,2013-09-11 21:55:00
3:15 PM,89.6,66.2,46,29.89,10.0,West,3.5,-,N/A,,Clear,270,2013-09-11 22:15:00
3:35 PM,89.6,68.0,49,29.89,10.0,WSW,5.8,-,N/A,,Clear,250,2013-09-11 22:35:00
3:55 PM,89.6,66.2,46,29.89,10.0,WNW,4.6,-,N/A,,Clear,300,2013-09-11 22:55:00
4:15 PM,86.0,64.4,48,29.89,10.0,NW,5.8,-,N/A,,Clear,320,2013-09-11 23:15:00
4:35 PM,84.2,62.6,48,29.90,10.0,WNW,4.6,-,N/A,,Clear,290,2013-09-11 23:35:00
4:55 PM,82.4,62.6,51,29.90,10.0,NW,6.9,-,N/A,,Clear,310,2013-09-11 23:55:00
5:15 PM,82.4,62.6,51,29.91,10.0,West,5.8,-,N/A,,Clear,280,2013-09-12 00:15:00
5:35 PM,78.8,62.6,57,29.91,10.0,WNW,8.1,-,N/A,,Clear,290,2013-09-12 00:35:00
5:55 PM,77.0,60.8,57,29.92,10.0,NW,4.6,-,N/A,,Clear,310,2013-09-12 00:55:00
6:15 PM,75.2,60.8,61,29.92,10.0,NNW,8.1,-,N/A,,Clear,330,2013-09-12 01:15:00
6:35 PM,73.4,59.0,61,29.93,10.0,NW,6.9,-,N/A,,Clear,320,2013-09-12 01:35:00
6:55 PM,73.4,59.0,61,29.93,10.0,NNW,6.9,-,N/A,,Clear,330,2013-09-12 01:55:00
7:15 PM,71.6,59.0,64,29.93,10.0,NNW,4.6,-,N/A,,Clear,330,2013-09-12 02:15:00
7:35 PM,69.8,57.2,64,29.94,10.0,NNW,5.8,-,N/A,,Clear,330,2013-09-12 02:35:00
7:55 PM,68.0,57.2,68,29.95,10.0,NW,4.6,-,N/A,,Clear,320,2013-09-12 02:55:00
8:15 PM,66.2,57.2,73,29.95,10.0,NNW,5.8,-,N/A,,Clear,330,2013-09-12 03:15:00
8:35 PM,64.4,57.2,77,29.96,10.0,NNW,4.6,-,N/A,,Clear,330,2013-09-12 03:35:00
8:55 PM,64.4,57.2,77,29.97,10.0,NNW,5.8,-,N/A,,Clear,340,2013-09-12 03:55:00
9:15 PM,64.4,55.4,73,29.97,10.0,NNW,5.8,-,N/A,,Clear,340,2013-09-12 04:15:00
9:35 PM,62.6,57.2,82,29.98,10.0,North,6.9,-,N/A,,Clear,350,2013-09-12 04:35:00
9:55 PM,62.6,55.4,77,29.98,10.0,North,5.8,-,N/A,,Clear,350,2013-09-12 04:55:00
10:15 PM,62.6,55.4,77,29.98,10.0,North,4.6,-,N/A,,Scattered Clouds,350,2013-09-12 05:15:00
10:35 PM,62.6,55.4,77,29.99,10.0,North,6.9,-,N/A,,Mostly Cloudy,350,2013-09-12 05:35:00
10:55 PM,62.6,57.2,82,29.99,10.0,NNW,3.5,-,N/A,,Overcast,340,2013-09-12 05:55:00
11:15 PM,62.6,55.4,77,29.99,10.0,NW,4.6,-,N/A,,Overcast,310,2013-09-12 06:15:00
11:35 PM,62.6,55.4,77,30.00,10.0,NW,3.5,-,N/A,,Overcast,320,2013-09-12 06:35:00
11:55 PM,62.6,55.4,77,30.00,10.0,WNW,3.5,-,N/A,,Overcast,300,2013-09-12 06:55:00